User: anonymous   Login
Location: Weston
(26.1283°N, 80.4075°W)
Time: 08:01:09
(UTC-05:00)
Language:

H-2A R/B - Orbit

View from above orbital plane
View from above orbital plane
View from above satellite
View from above satellite

Ground track
Ground track

The orbit data is extracted from the following two-line orbital elements,

1 26899U 01038B   17015.77852249  .00000361  00000-0  15817-3 0  9999
2 26899  27.8657 127.4362 7124531  86.9279 345.0063  2.47435239132736
Epoch (UTC): 15 January 2017 18:41:04
Eccentricity: 0.7124531
inclination: 27.8657°
perigee height: 261 km
apogee height: 33162 km
right ascension of ascending node: 127.4362°
argument of perigee: 86.9279°
revolutions per day: 2.47435239
mean anomaly at epoch: 345.0063°
orbit number at epoch: 13273

The dashed part of the orbit path shows where the satellite is in the earth's shadow,  

DLR